Location: San Martino di Castrozza
(46.2667°N, 11.8000°E)
Time: 14:42:10
(UTC+00:00)

Meteor 1-19 Rocket - Pass Details

Date: 23 April 2021
Orbit: 807 x 928 km, 81.2° (Epoch: 13 May)

Event Time Altitude Azimuth Distance (km) Brightness Sun altitude
Exits shadow 00:32:43 70° 96° (E) 893 4.2 -28.4°
Drops below altitude 10° 00:38:10 10° 15° (NNE) 2,433 7.5 -28.0°
Sets 00:40:33 0° 14° (NNE) 3,358 8.5 -27.9°
